DECAYED

STARLINK-2294, 48020 (Decayed)

Orbit data source: Space-Track

STARLINK-2294, 48020 was a payload satellite owned by SpaceX/Seattle (US) in LEO that was launched on Wed, 24 Mar 2021 UTC via an FALCON 9 launch vehicle from the Air Force Eastern Test Range (AFETR). Payload-class satellites include a variety of spacecraft equipped with specific instruments for various scientific and technological missions. These include communications satellites like Starlink; space stations such as the ISS; scientific satellites like the Hubble; Earth observation satellites from companies like Planet Labs, Umbra, and HawkEye 360; GPS; miniature CubeSats for education and research; and military/defense satellites.

Not visible in the next 10 days
Identifier
48020, 2021-024AV
Orbit
Decayed
Country
Flag of USUS
Related business
Manufacturer
SpaceX/Seattle
Mission
Decayed Commercial Communications
Bus & Motor
STARLINK, Unknown motor
Mass
260 kg wet, ~248 kg dry
Launch date (UTC)
2021-03-24 (5 years ago)
Launch vehicle
FALCON 9
Launch site
Air Force Eastern Test Range (AFETR)
Object type
Payload
Rocket body
Debris
Shape & HBR
Box + 1 Pan, 10.1 m
Radar Cross Section
13.562 m², Large (>1 m²)

Expand to show TLE details & history
Last TLE update: 10 months ago

TLE from 10 months ago
0 STARLINK-2294
1 48020U 21024AV  25034.41441137  .12383694  12307-4  10972-2 0  9996
2 48020  53.0299 226.9750 0007410 266.5056 173.0333 16.38278407215270
Epoch: 2025-02-03T09:56Z
TLE epoch observation values (Epoch: 2025-02-03T09:56:45.142Z)
Latitude
51.94251°
Longitude
16.88221°
Altitude
181.401 km
Speed
7.801 km/s
True Right ascension
19h 59m 37s
True Declination
51° 45' 39"
Sunlit
Object was in daylight at epoch
Visualization orbit readout
Latitude
Unknown
Longitude
Unknown
Altitude
Unknown
Speed
Unknown
Apparent Right ascension
Unknown
Apparent Declination
Unknown
Sunlit
N/A
Visualization observer readout
Local Sidereal Time
02:45:24
Azimuth
Unknown
Elevation
Unknown
Doppler factor
Unknown
Orbital elements
Apogee altitude
175.529 km
Perigee altitude
165.824 km
Semi-major axis
6,548.813 km
Eccentricity
0.00074
Inclination
53.0299°
RAAN
226.975°
Arg. of periapsis
266.5056°
True anomaly
173.04359°
Mean anomaly
173.0333°
Eccentric anomaly
173.03845°
Mean motion
4.09543 °/min
Orbital period
87.9 mins
BSTAR
0.0010972
Loading maneuver chart data...
Computing Atmospheric mass density...

Documentation

Showing up to 5 results
|